Location: Fours
(44.3167°N, 6.7000°E)
Time: 23:29:44
(UTC+00:00)

NOSS 3-1 (C) - Pass Details

Date: 16 October 2021
Orbit: 717 x 1491 km, 63.4° (Epoch: 25 November)

Event Time Altitude Azimuth Distance (km) Brightness Sun altitude
Rises 18:42:20 0° 191° (S) 3,145 6.2 -21.3°
Reaches altitude 10° 18:44:42 10° 184° (S) 2,270 5.4 -21.7°
Enters shadow 18:47:36 29° 158° (SSE) 1,397 4.1 -22.3°
